TIME,DELAY(SENSOR),PRES,T(CTD),SAL,OXYGEN,RAWTEMP,T(OPTODE),TCPHASE,FLUOR,BETA(BETA700),BETA(BETA412),BETA(BETA440),CDOM,C(CSC),ED(ED411.90),ED(ED443.80),ED(ED489.40),ED(ED554.70),LU(LU412.20),LU(LU443.80),LU(LU489.40),LU(LU555.00),COMP,TILTX,TILTX(TILTY),CHECK
1350227917,5804,498.2200012207031000,17.0382003784179700,36.3741989135742200,222.4212951660156200,201.5408020019531200,17.0348205566406250,32.5685081481933600,50,97,58,81,57,913,2147481334,2147772379,2147560283,2147795392,2147312740,2147476699,2147707337,2148247488,1673,7,13,61148
1350228076,5803,486.0899963378906000,17.1270008087158200,36.3917999267578100,224.1069030761718800,198.7050018310547000,17.1210803985595700,32.4423599243164060,49,98,58,81,57,917,2147479652,2147772516,2147559808,2147795812,2147315401,2147477476,2147709750,2148244608,2073,6,13,57134
1350228191,5803,475.5599975585937500,17.2451000213623050,36.4154014587402340,226.6110992431640600,194.6605072021484400,17.2441005706787100,32.2586402893066400,49,97,57,81,56,916,2147481627,2147768054,2147557302,2147794569,2147315913,2147475382,2147707483,2148239506,1171,7,12,17967
1350228320,5805,463.8599853515625000,17.3747997283935550,36.4403991699218750,229.1105041503906200,190.5500946044922000,17.3691501617431640,32.0767784118652340,49,97,56,82,55,917,2147483538,2147770038,2147562029,2147794002,2147315849,2147477348,2147707337,2148243419,495,7,12,42250
1350228435,5803,453.4599914550781000,17.4461994171142580,36.4565010070800800,230.6941986083984400,188.0854034423828000,17.4441394805908200,31.9642906188964840,50,97,56,80,56,917,2147484315,2147768758,2147557476,2147794697,2147315163,2147474066,2147705910,2148242258,3493,7,12,58117
1350228562,5804,442.0400085449219000,17.5044002532959000,36.4660987854003900,231.8419952392578000,186.1098937988281200,17.5042495727539060,31.8807392120361330,50,98,56,81,56,920,2147482980,2147770688,2147557787,2147791369,2147317238,2147475337,2147705984,2148243894,3516,7,12,57998
1350228680,5802,431.6499938964844000,17.5729999542236330,36.4756011962890600,231.0646057128906200,183.8562927246093800,17.5728302001953120,31.8884696960449220,50,101,58,80,55,921,2147482916,2147768457,2147556589,2147794934,2147314880,2147476452,2147705206,2148243410,2670,6,13,39626
1350228807,5803,420.7300109863281000,17.6208000183105470,36.4851989746093750,231.3450927734375000,182.3679046630859400,17.6181297302246100,31.8545093536376950,50,98,57,82,56,926,2147484553,2147764973,2147560795,2147794678,2147315602,2147478546,2147703113,2148245513,1807,6,13,8582
1350228936,5805,409.7399902343750000,17.7196998596191400,36.5037994384765600,232.4920959472656200,179.1230010986328000,17.7168903350830080,31.7540092468261720,50,99,57,81,54,929,2147485769,2147767917,2147558217,2147796032,2147310710,2147476297,2147704932,2148244781,1478,7,13,43112
1350229075,5801,398.4200134277344000,17.8152008056640620,36.5214996337890600,234.6584014892578000,176.0435943603515600,17.8106307983398440,31.6069202423095700,50,98,56,81,55,929,2147484498,2147768722,2147559067,2147795739,2147321627,2147480301,2147705179,2148246985,1473,7,13,10085
1350229214,5804,387.3200073242187500,17.9207000732421880,36.5413017272949200,235.9880981445312500,172.5612030029297000,17.9166393280029300,31.4960308074951170,50,99,56,82,55,930,2147488612,2147768576,2147560978,2147793993,2147316882,2147482980,2147705170,2148244278,677,7,13,43918
1350229356,5806,376.2699890136719000,17.9715995788574220,36.5494003295898440,236.4707946777343800,170.8005065917968800,17.9702491760253900,31.4492797851562500,50,99,57,81,55,930,2147488667,2147766052,2147558555,2147794587,2147319387,2147479862,2147706678,2148242441,68,7,12,38395
1350229495,5802,365.7699890136719000,18.0069007873535160,36.5535011291503900,236.1170043945312500,169.7221984863281200,18.0030899047851560,31.4514503479003900,50,98,57,81,56,936,2147487387,2147768859,2147562368,2147794395,2147317586,2147475593,2147701019,2148243757,2565,7,12,10954
1350229643,5804,353.3299865722656000,18.0361003875732420,36.5555000305175800,235.3966064453125000,168.7651062011718800,18.0322399139404300,31.4734001159667970,50,98,58,83,56,937,2147488128,2147766738,2147562404,2147792786,2147314102,2147477842,2147702326,2148241929,1732,7,12,4269
1350229758,5805,341.9899902343750000,18.1145992279052730,36.5666007995605500,235.0859069824218800,166.1170043945312500,18.1128807067871100,31.4525909423828120,50,98,57,81,55,938,2147488274,2147771373,2147565412,2147793545,2147319186,2147478564,2147708278,2148243584,1521,7,13,43551
1350229873,5803,330.9899902343750000,18.1835002899169920,36.5735015869140600,234.3695068359375000,163.7467041015625000,18.1850795745849600,31.4554405212402340,49,100,57,82,56,940,2147487725,2147769572,2147566436,2147790043,2147317549,2147479195,2147706560,2148241810,1235,7,12,16522
1350229991,5805,319.9599914550781000,18.2527999877929700,36.5811996459960940,233.7747955322265600,161.6517944335937500,18.2488994598388670,31.4560508728027340,50,99,57,81,55,939,2147493531,2147766774,2147568539,2147792320,2147315894,2147482569,2147706304,2148241280,856,7,12,38307
1350230106,5800,309.3900146484375000,18.3152999877929700,36.5886993408203100,233.0773010253906200,159.4308013916015600,18.3165607452392580,31.4596099853515620,49,100,57,82,56,939,2147490642,2147766646,2147567881,2147792384,2147311259,2147484324,2147710217,2148240192,567,6,12,9076
1350230221,5803,298.6300048828125000,18.3686008453369140,36.5898017883300800,231.8966979980468800,157.8007965087890600,18.3662300109863280,31.4952507019042970,49,98,57,82,55,945,2147491712,2147767661,2147574784,2147793517,2147308836,2147484251,2147716644,2148244534,422,6,12,15251
1350230339,5804,287.8699951171875000,18.4789009094238280,36.5984992980957000,230.0149993896484400,154.1652984619140600,18.4770202636718750,31.5384807586669920,50,99,57,81,56,948,2147486034,2147770678,2147584612,2147793188,2147306102,2147479963,2147717796,2148238198,3305,7,12,26754
1350230454,5804,277.6600036621094000,18.5569992065429700,36.6008987426757800,228.9622039794922000,151.6466979980468800,18.5537891387939450,31.5567207336425780,50,100,57,81,55,949,2147492955,2147774884,2147592768,2147790747,2147312347,2147483163,2147720283,2148242669,2322,7,12,16000
1350230583,5803,266.0400085449219000,18.6727008819580080,36.6035995483398440,228.0406951904297000,147.7183074951172000,18.6735591888427730,31.5497398376464840,50,99,57,81,55,949,2147491556,2147779382,2147605266,2147793746,2147307986,2147490212,2147726546,2148238098,2418,7,12,8754
1350230698,5802,255.3000030517578000,18.7758998870849600,36.6032981872558600,227.4028930664062500,144.2615966796875000,18.7789707183837900,31.5347900390625000,50,98,57,83,57,950,2147489563,2147786194,2147623030,2147790336,2147303597,2147492708,2147737307,2148241600,1656,7,12,34189
1350230813,5803,244.2899932861328000,18.9468002319335940,36.6164016723632800,228.4980926513672000,138.8845977783203000,18.9429893493652340,31.4087390899658200,50,99,57,82,56,951,2147491876,2147792713,2147647835,2147791113,2147309485,2147496365,2147754989,2148244617,1086,7,12,50412
1350230930,5804,232.8600006103515600,19.0512008666992200,36.6102981567382800,230.3330993652343800,134.6562042236328000,19.0720291137695300,31.2623100280761720,50,99,56,81,56,954,2147495588,2147810240,2147686857,2147790454,2147310272,2147504466,2147772818,2148246171,1625,7,12,4680
1350231045,5805,221.6100006103515600,19.1758003234863280,36.5961990356445300,235.1427001953125000,131.3639068603515600,19.1725292205810550,30.9867992401123050,50,100,56,82,54,957,2147496795,2147828059,2147736640,2147790144,2147311890,2147521252,2147808896,2148244096,1273,7,12,42514
1350231160,5802,210.6600036621093800,19.2292003631591800,36.5884017944335940,243.3748016357422000,129.5209960937500000,19.2287902832031250,30.5787200927734380,50,100,56,81,55,960,2147504201,2147857307,2147805604,2147791478,2147310866,2147541504,2147844608,2148246390,962,7,12,44103
1350231278,5803,199.7599945068359400,19.2661991119384770,36.5863990783691400,245.1143035888672000,128.3417968750000000,19.2647991180419920,30.4843406677246100,50,101,58,82,53,960,2147508397,2147901769,2147902070,2147791597,2147313929,2147567588,2147899382,2148251547,1055,7,12,16028
1350231333,5802,194.8300018310547000,19.2863998413085940,36.5844993591308600,245.6663970947265600,127.6533966064453100,19.2858200073242200,30.4502696990966800,50,100,56,82,53,963,2147514011,2147927012,2147953462,2147790235,2147316516,2147585472,2147935469,2148249344,1263,7,12,53221
1350231388,5804,190.0099945068359400,19.3015003204345700,36.5820999145507800,245.6775054931640600,127.1605987548828100,19.3008708953857420,30.4435005187988280,50,102,57,82,53,963,2147516644,2147951442,2148015122,2147791734,2147323318,2147603712,2147967350,2148256091,1360,7,12,20372
1350231443,5805,185.3399963378906200,19.3253993988037100,36.5802001953125000,245.7608032226562500,126.2875976562500000,19.3275299072265620,30.4281101226806640,50,100,56,82,53,965,2147522560,2147985051,2148082971,2147788781,2147324708,2147623232,2148003428,2148261348,976,7,12,23025
1350231498,5805,180.8099975585937500,19.3370990753173830,36.5764007568359400,245.9804992675781200,126.1015014648437500,19.3332195281982420,30.4160594940185550,51,101,56,82,55,964,2147529088,2147993773,2148084032,2147790701,2147326107,2147629056,2148009115,2148258486,441,7,12,16888
1350231573,5802,175.1300048828125000,19.3712005615234380,36.5755996704101560,246.2156066894531200,124.8631973266601600,19.3710403442382800,30.3893699645996100,50,102,57,83,55,969,2147548452,2148070848,2148267474,2147791177,2147337965,2147679707,2148111533,2148264621,2699,7,12,2800
1350231640,5803,170.5299987792968800,19.4004993438720700,36.5798988342285160,246.6970062255859400,123.9309997558593800,19.3995094299316400,30.3553791046142580,51,103,57,82,54,969,2147558619,2148121673,2148362029,2147791332,2147333229,2147714212,2148169097,2148266953,132,7,12,21657
1350231695,5805,166.8399963378906200,19.4367008209228500,36.5830993652343750,246.7839050292968800,122.7576980590820300,19.4353599548339840,30.3363208770751950,52,105,57,81,54,972,2147573604,2148171501,2148461915,2147791122,2147348699,2147744841,2148217865,2148274084,3520,7,12,22799
1350231750,5804,163.2100067138672000,19.4543991088867200,36.5853004455566400,246.8061981201172000,122.1996002197265600,19.4524097442626950,30.3279991149902340,52,104,57,82,55,973,2147591478,2148222866,2148564150,2147791936,2147356169,2147774976,2148275108,2148273033,3272,7,12,53283
1350231817,5803,158.8999938964843800,19.5056991577148440,36.5900993347168000,246.8805999755859400,120.4596023559570300,19.5055809020996100,30.3020000457763670,52,104,57,82,55,973,2147608740,2148285376,2148683154,2147792082,2147365065,2147815579,2148344658,2148283949,2644,7,12,45107
1350231896,5801,154.4600067138672000,19.5702991485595700,36.5942001342773440,246.7738037109375000,118.3516006469726600,19.5699996948242200,30.2796192169189450,56,105,57,83,54,971,2147639149,2148368237,2148840996,2147791597,2147372425,2147859392,2148429403,2148282340,2004,7,12,19468
1350231975,5804,150.8200073242187500,19.6135005950927730,36.5965003967285160,247.2700042724609400,117.0893020629882800,19.6085796356201170,30.2409706115722660,57,107,57,84,54,975,2147673901,2148472557,2149033901,2147790390,2147393600,2147916406,2148525641,2148288786,2043,7,12,32872
1350232066,5802,146.6199951171875000,19.6755008697509770,36.6039009094238300,247.1739044189453000,115.0819015502929700,19.6699504852294920,30.2192707061767580,59,106,57,85,54,972,2147715510,2148598564,2149245604,2147796608,2147401590,2147982774,2148625563,2148294857,2613,7,12,59606
1350232157,5802,142.3699951171875000,19.7056999206542970,36.6082000732421900,247.2424926757812500,113.9816970825195300,19.7035903930664060,30.2018299102783200,60,107,57,83,54,980,2147776036,2148746121,2149505700,2147794669,2147436187,2148052306,2148746386,2148305718,3115,7,12,7174
1350232239,5800,138.5399932861328000,19.7861995697021500,36.6150016784668000,246.1880950927734400,111.4356994628906200,19.7814407348632800,30.2160701751709000,62,109,56,84,54,985,2147838272,2148916580,2149798299,2147800356,2147455222,2148140224,2148888530,2148314267,2203,7,13,64539
1350232330,5803,134.4600067138672000,19.8705997467041000,36.6273002624511700,245.7613983154297000,108.5316009521484400,19.8702793121337900,30.1975097656250000,64,108,57,84,54,988,2147928457,2149108278,2150130541,2147805293,2147493494,2148231872,2149044086,2148324882,2220,7,12,62078
1350232421,5802,130.6999969482422000,19.9438991546630860,36.6217002868652340,245.5923004150390600,106.3448028564453100,19.9371795654296880,30.1766700744628900,68,112,56,82,54,989,2148042843,2149388306,2150616621,2147804379,2147527643,2148364086,2149261897,2148343332,1603,6,12,42987
1350232526,5803,126.8899993896484400,20.0555992126464840,36.6319007873535160,245.9302978515625000,102.6445007324218800,20.0504302978515620,30.1137504577636720,70,112,57,83,54,988,2148174957,2149678592,2151069238,2147814043,2147586752,2148489718,2149442294,2148361362,1129,7,12,65338
1350232641,5804,123.0400009155273400,20.1277008056640620,36.6314010620117200,246.7095947265625000,100.4647979736328100,20.1171703338623050,30.0510101318359380,75,113,56,84,55,984,2148338971,2149958930,2151401929,2147819419,2147638665,2148569298,2149518326,2148367222,526,7,12,21820
1350232768,5802,119.1100006103515600,20.2737998962402340,36.6501007080078100,249.1867980957031200,96.3170776367187500,20.2441902160644530,29.8877296447753900,76,111,57,83,55,993,2148627364,2150592539,2152439936,2147829357,2147740708,2148827977,2149940909,2148402340,135,7,12,9023
1350232880,5804,114.8399963378906200,20.4631004333496100,36.6786003112793000,250.6423950195312500,90.4019470214843800,20.4254493713378900,29.7482395172119140,75,112,58,85,54,996,2149034121,2151361828,2153541796,2147847506,2147883392,2149106368,2150341321,2148440758,37,8,12,14225
1350232947,5805,111.8099975585937500,20.4641990661621100,36.6809005737304700,250.2165985107422000,89.3309478759765600,20.4582805633544920,29.7532997131347660,78,112,56,83,55,993,2149349888,2151911424,2154286875,2147856521,2147985481,2149323136,2150638418,2148466084,218,7,12,32883
1350233038,5806,107.3799972534179700,20.5440006256103500,36.6825981140136700,249.7606048583984400,86.6980895996093800,20.5389995574951170,29.7394790649414060,81,113,56,83,56,991,2150028608,2153103853,2155941705,2147886006,2148218898,2149768429,2151242020,2148523465,3561,7,12,36518
1350233117,5802,103.8099975585937500,20.6702995300292970,36.6866989135742200,251.2756958007812500,82.7274932861328100,20.6608009338378900,29.6229591369628900,78,112,56,84,53,992,2150734162,2154282157,2157497380,2147912859,2148440731,2150165165,2151790491,2148575707,2823,7,12,55192
1350233211,5803,99.8700027465820300,20.7584991455078120,36.6843986511230500,253.3448028564453000,79.8944931030273400,20.7477302551269530,29.4975299835205080,82,113,56,85,54,992,2151767113,2155847442,2159385746,2147953499,2148775917,2150750710,2152553225,2148650742,2423,7,12,26152
1350233266,5803,97.7099990844726600,20.7900009155273440,36.6865005493164060,254.1717987060547000,78.3800430297851600,20.7942104339599600,29.4428100585937500,85,113,57,84,54,992,2152575625,2157147382,2161075620,2147985819,2149051730,2151230875,2153191954,2148717019,1907,7,12,16616
1350233321,5802,95.6500015258789000,20.9237003326416000,36.6924018859863300,255.6976013183593800,74.7326202392578100,20.9062004089355470,29.3315792083740230,82,113,56,85,55,999,2153182701,2157956955,2161933558,2148014701,2149259044,2151539684,2153554276,2148751652,1979,7,12,28888
1350233376,5804,93.8600006103515600,20.9731998443603500,36.6999015808105500,258.1094970703125000,72.6825637817382800,20.9691696166992200,29.2040901184082030,80,114,57,84,54,998,2154002642,2159195200,2163428278,2148055350,2149542528,2152004717,2154128758,2148818422,2251,7,12,59538
1350233431,5803,92.2500000000000000,20.9771995544433600,36.6791992187500000,259.6640014648437500,71.7705764770507800,20.9971904754638670,29.1275901794433600,80,115,58,85,54,1000,2154688539,2160161581,2164512109,2148084096,2149763894,2152337508,2154496576,2148852068,2695,7,12,1640
1350233510,5804,89.8099975585937500,21.1527004241943360,36.6921997070312500,259.5497131347656000,67.2491531372070300,21.1361408233642580,29.0755996704101560,81,114,57,83,55,1001,2156054454,2162069202,2166612141,2148143140,2150267958,2153104850,2155369554,2148949056,3413,7,12,13254
1350233565,5804,87.7300033569336000,21.3173999786376950,36.7135009765625000,263.2221069335937500,61.5573806762695300,21.3111801147460940,28.8529891967773440,76,113,57,85,53,1003,2157420352,2163974025,2168775268,2148210852,2150741851,2153793362,2156138331,2149031305,3034,7,12,42914
1350233620,5805,85.8600006103515600,21.4881992340087900,36.7293014526367200,266.5497131347656000,56.3956985473632800,21.4700393676757800,28.6538505554199220,73,113,55,85,53,1003,2158665033,2165490916,2170196288,2148262345,2151269010,2154529225,2156934226,2149114011,2565,7,12,36699
1350233675,5803,84.2300033569336000,21.6630992889404300,36.7434005737304700,268.5952148437500000,51.5711593627929700,21.6186294555664060,28.5120201110839840,72,114,57,85,52,1002,2159896118,2167007890,2171639021,2148324315,2151808265,2155249984,2157696018,2149195465,2286,7,12,630
1350233754,5802,82.2300033569336000,21.7570991516113280,36.7407989501953100,271.3028869628906000,48.2789611816406250,21.7200794219970700,28.3644294738769530,71,114,57,84,52,1003,2161607168,2169166363,2173714715,2148405586,2152611382,2156345590,2158809051,2149311780,2426,7,12,22390
1350233833,5803,79.7200012207031200,21.9360008239746100,36.7165985107421900,272.3800964355469000,41.6658706665039060,21.9240207672119140,28.2405300140380860,69,116,57,85,52,1004,2164323602,2172422418,2176728658,2148537216,2153826258,2157901979,2160299026,2149467739,2527,6,12,46484
1350233888,5804,77.3700027465820300,22.0351009368896500,36.7149009704589840,272.9504089355469000,38.5313301086425800,22.0207595825195300,28.1797409057617200,71,115,58,86,52,1001,2167032832,2175676992,2179918729,2148700470,2155125888,2159562633,2161930788,2149654509,2243,7,12,59758
1350233943,5802,75.0000000000000000,22.0186996459960940,36.6683006286621100,271.0848999023437500,38.4663314819335940,22.0227699279785160,28.2519092559814450,71,121,57,86,52,1002,2171172562,2180682322,2184863085,2148911835,2156686701,2161707931,2164243483,2149902985,2042,7,12,28490
1350233998,5803,72.6900024414062500,22.1634006500244140,36.6553001403808600,268.2788085937500000,34.5556297302246100,22.1435298919677730,28.3144092559814450,70,119,58,86,53,1003,2175057737,2185136832,2189162212,2149162304,2158314377,2163838381,2166447862,2150166189,1740,8,12,62650
1350234053,5804,70.5800018310546900,22.2884006500244140,36.6666984558105500,267.0831909179687500,30.8424205780029300,22.2582607269287100,28.3161201477050780,67,122,56,86,51,1004,2178087396,2188334784,2191997906,2149357293,2159677659,2165464905,2167902500,2150351716,1604,8,12,18268
1350234108,5806,69.0400009155273400,22.4319992065429700,36.6552009582519500,268.1040954589844000,26.1329402923584000,22.4038791656494140,28.2176494598388670,67,120,58,85,53,1001,2180521060,2190834249,2194050916,2149483638,2160680576,2166590363,2168919680,2150470656,1815,7,12,18528
1350234187,5804,67.3000030517578100,22.7182998657226560,36.6598014831543000,268.5809020996094000,16.6246891021728500,22.6982192993164060,28.0822391510009770,67,120,58,89,53,1006,2184281828,2194716836,2197605641,2149784704,2162719908,2168985280,2171085476,2150730441,1328,7,12,59281
1350234242,5801,65.8300018310546900,22.9638996124267580,36.7072982788085940,272.8724975585937500,8.8580751419067380,22.9389991760253900,27.8198890686035160,65,119,57,86,53,1004,2187500288,2198346642,2201172562,2150050953,2164561956,2171126756,2172938779,2150962395,1209,8,12,17550
1350234309,5805,64.4599990844726600,23.1340999603271500,36.7327995300293000,278.6072998046875000,2.9543640613555910,23.1222591400146500,27.5295600891113280,64,120,58,87,50,1005,2189664905,2200477321,2202714221,2150160621,2166374857,2173078985,2174333229,2151108854,862,7,12,43649
1350234436,5802,62.6500015258789060,23.2700996398925780,36.7302017211914060,280.4173889160156000,-0.8245468139648438,23.2396602630615230,27.4161491394042970,61,121,57,86,51,1004,2183044836,2189907977,2189026934,2149595364,2163803446,2168282569,2167842596,2150404443,3189,7,12,41611
1350234539,5803,59.7099990844726560,23.4088993072509770,36.6300010681152340,279.5455932617187500,-6.3773541450500490,23.4123306274414060,27.3817596435546880,61,119,57,87,50,998,2194017901,2202560713,2201930578,2150527680,2170228004,2175738870,2174665572,2151212251,3399,8,12,54112
1350234594,5804,57.9500007629394500,23.7222003936767580,36.6174011230468750,275.7651062011719000,-14.4471702575683600,23.6635894775390620,27.4268608093261720,61,122,58,88,53,995,2208746121,2219710025,2219173266,2151682029,2178626852,2186193581,2184803739,2152339456,3527,8,12,24238
1350234852,5803,56.1399993896484400,23.8391990661621100,36.5704002380371100,270.6354980468750000,-19.7599105834960940,23.8292198181152340,27.5593299865722660,61,122,59,89,51,992,2217104950,2227873170,2226777700,2152575085,2183161444,2191087414,2189063835,2152846564,2672,7,12,36296
1350235006,5803,53.1599998474121100,24.5338001251220700,36.6160011291503900,269.7486877441406000,-37.2037391662597660,24.3743400573730470,27.3831005096435550,61,123,59,87,52,986,2230576091,2241409188,2239167689,2153974372,2192783652,2201605394,2198408749,2154072576,2403,8,12,52337
1350235040,5804,52.8300018310546900,24.5874004364013670,36.5965003967285160,269.7907104492187500,-40.5491294860839840,24.4791107177734380,27.3411006927490230,59,118,58,87,51,991,2205150134,2210932306,2207474038,2151857581,2178361609,2183046400,2179644781,2151959259,2605,8,12,31560
1350235332,5806,50.8699989318847660,25.0379009246826170,36.5714988708496100,267.6405944824219000,-58.3281288146972660,25.0372200012207030,27.2108001708984380,59,128,57,93,52,982,2233516096,2244361737,2242106084,2154585197,2195362651,2203343323,2198647661,2154234459,3375,7,12,57284
1350235489,5803,48.8100013732910160,25.2324008941650400,36.5475997924804700,265.6474914550781000,-64.3203506469726600,25.2258396148681640,27.2164707183837900,61,120,57,87,51,985,2249185910,2260750436,2258496822,2156713536,2206314980,2214915474,2209039460,2155660370,2370,7,13,37407
1350235737,5806,46.3800010681152340,26.3162994384765620,36.3185997009277340,246.5605926513672000,-99.3372268676757800,26.3335399627685550,27.5701904296875000,60,120,58,86,49,982,2239576502,2249161709,2246926857,2156347757,2203613074,2210255213,2203219730,2155107840,967,8,12,23188
1350236069,5804,44.9199981689453100,26.4207992553710940,36.2876014709472660,241.6871948242187500,-102.1947021484375000,26.4243602752685550,27.7439994812011720,59,115,58,87,50,963,2249148845,2258842148,2256228937,2157718582,2210370048,2217799113,2210806784,2156132214,1916,8,12,18746
1350236726,5804,42.5400009155273440,26.4391002655029300,36.2809982299804700,240.4308929443359400,-102.9143981933593800,26.4472503662109380,27.7898101806640620,54,114,58,86,50,942,2254147081,2263652973,2261031835,2159630290,2222097371,2227099821,2214934290,2156782016,3383,7,11,47272
1350236783,5805,40.6899986267089840,26.4456996917724600,36.2792015075683600,240.2033996582031200,-103.1523971557617200,26.4548206329345700,27.7967605590820300,54,115,58,86,51,938,2260647469,2270526363,2268814134,2161635300,2233820955,2238438637,2223563053,2157909275,3078,7,11,58797
1350236852,5806,38.5200004577636700,26.4552993774414060,36.2770004272460940,240.0182952880859400,-103.3510971069336000,26.4611396789550780,27.8023490905761720,54,112,57,86,52,931,2263717065,2272591835,2271161572,2163876589,2246320100,2249219154,2230891602,2159102180,2798,7,11,55224
1350236909,5804,36.5000000000000000,26.4556999206542970,36.2767982482910160,240.1074981689453000,-103.3567962646484400,26.4613208770751950,27.7983207702636720,54,114,56,86,50,928,2270758921,2279567570,2278632237,2166207213,2257216694,2258782893,2237577828,2160281526,2485,7,11,28232